Regional Weather Roundup
Issued by NWS

Home | Current Version | Previous Version | Graphics & Text | Print | Product List | Glossary On
Versions: 1 2 3 4 5 6 7 8 9 10 11 12 13 14 15 16 17 18 19 20 21 22 23 24 25 26 27 28 29 30 31 32 33 34 35 36 37 38 39 40 41 42 43 44 45 46 47 48 49 50
000
ASUS43 KOAX 300210
RWRNE

WEATHER ROUNDUP FOR NEBRASKA
NATIONAL WEATHER SERVICE OMAHA NE
900 PM CDT MON JUN 29 2015

NOTES: SATELLITE DATA IS BEING USED TO AUGMENT CLOUD COVER ABOVE
       12000 FEET.
       "FAIR" INDICATES FEW OR NO CLOUDS BELOW 12,000 FEET WITH NO
       SIGNIFICANT WEATHER AND/OR OBSTRUCTIONS TO VISIBILITY.

  * THESE STATIONS DO NOT REPORT WEATHER SUCH AS RAIN...SNOW OR FOG.

NEZ001>004-019>022-054>056-300300-
NEBRASKA PANHANDLE

CITY           SKY/WX    TMP DP  RH WIND       PRES   REMARKS
SCOTTSBLUFF    MOCLDY    80  56  43 E7        30.09R
ALLIANCE       CLEAR     78  61  55 VRB7      30.09S
CHADRON        CLEAR     80  66  62 E5        30.04S
KIMBALL          N/A    N/A N/A N/A MISG        N/A
SIDNEY         PTCLDY    74  62  66 E5        30.13S
$$

NEZ057>060-069>072-079>082-300300-
SOUTHWEST NEBRASKA

CITY           SKY/WX    TMP DP  RH WIND       PRES   REMARKS
NORTH PLATTE   CLEAR     79  64  60 E3        30.01R
IMPERIAL       CLEAR     81  63  54 SE5       30.04F
LEXINGTON      CLEAR     81  64  56 E5        29.99S
MCCOOK         CLEAR     86  58  38 N5        30.00R
OGALLALA       CLEAR     84  57  40 CALM      30.05R
$$

NEZ005>010-023>029-035>040-094-300300-
NORTH CENTRAL NEBRASKA

CITY           SKY/WX    TMP DP  RH WIND       PRES   REMARKS
VALENTINE      CLEAR     82  61  48 NE3       30.00S
AINSWORTH      CLEAR     82  61  50 N3        30.01S
BROKEN BOW     CLEAR     79  68  69 CALM      30.00S
O`NEILL        PTCLDY    82  64  56 S3        29.96S
ORD            PTCLDY    76  64  66 CALM      29.96R
THEDFORD       CLEAR     80  65  60 E5        30.03S
$$

NEZ041-046>049-061>064-073>077-083>087-300300-
SOUTH CENTRAL NEBRASKA

CITY           SKY/WX    TMP DP  RH WIND       PRES   REMARKS
GRAND ISLAND   PTCLDY    79  64  60 SE5       29.97R HAZE
AURORA         CLEAR     75  65  70 E6        29.96S
HASTINGS       CLEAR     82  62  50 CALM      29.96S
HEBRON         CLEAR     76  65  68 CALM      29.94S
HOLDREGE       CLEAR     78  61  54 E6        29.99S
KEARNEY *      CLEAR     82  63  51 E3        29.98S
YORK           CLEAR     75  64  69 CALM      29.96R
$$

NEZ011>018-030>034-042>045-300300-
NORTHEAST NEBRASKA

CITY           SKY/WX    TMP DP  RH WIND       PRES   REMARKS
NORFOLK        CLEAR     75  66  73 E3        29.93S
ALBION         CLEAR     75  62  64 CALM      29.96S
BLAIR          CLEAR     76  60  57 CALM      29.91F
COLUMBUS *     CLEAR     72  64  78 CALM      29.94F
FREMONT        CLEAR     78  61  55 CALM      29.92S
TEKAMAH        CLOUDY    75  64  68 W5        29.89F
WAYNE          CLEAR     70  67  89 CALM      29.92S
$$

NEZ050>053-065>068-078-088>093-300300-
SOUTHEAST NEBRASKA

CITY           SKY/WX    TMP DP  RH WIND       PRES   REMARKS
LINCOLN        CLEAR     80  63  55 N5        29.93S HAZE
OMAHA EPPLEY   CLOUDY    79  66  64 CALM      29.90S
BEATRICE       CLEAR     79  65  62 CALM      29.93S
FALLS CITY     CLEAR     79  64  60 CALM      29.89F
NEBRASKA CITY  CLEAR     78  55  45 N5        29.91S
PLATTSMOUTH    PTCLDY    76  62  59 CALM      29.91S
$$

NEZ044-045-051>053-067-300300-
OMAHA AREA

CITY           SKY/WX    TMP DP  RH WIND       PRES   REMARKS
OMAHA EPPLEY   CLOUDY    79  66  64 CALM      29.90S
BLAIR          CLEAR     76  60  57 CALM      29.91F
FREMONT        CLEAR     78  61  55 CALM      29.92S
MILLARD        CLEAR     79  62  56 CALM      29.90S
OFFUTT AFB     CLEAR     76  65  69 S3        29.89F
PLATTSMOUTH    PTCLDY    76  62  59 CALM      29.91S
WAHOO          FAIR      78  65  64 CALM      29.92S
$$


USA.gov is the U.S. government's official web portal to all federal, state and local government web resources and services.